Showing default

FLOCK 4G 12, 62625

Orbit data source: Space-Track

FLOCK 4G 12, 62625 is a payload satellite owned by Planet (US) in SSO that was launched on Tue, 14 Jan 2025 UTC via an FALCON 9 launch vehicle from the Air Force Western Test Range (AFWTR). Payload-class satellites include a variety of spacecraft equipped with specific instruments for various scientific and technological missions. These include communications satellites like Starlink; space stations such as the ISS; scientific satellites like the Hubble; Earth observation satellites from companies like Planet Labs, Umbra, and HawkEye 360; GPS; miniature CubeSats for education and research; and military/defense satellites.

Loading next visibility...
Identifier
62625, 2025-009S
Orbit
SSO
Country
Flag of USUS
Related business
Manufacturer
Planet
Mission
Operational Commercial Imaging
Bus & Motor
CUBESAT 3U, Unknown motor
Mass
5.7 kg wet, 5.7 kg dry
Launch date (UTC)
2025-01-14 (1 year ago)
Launch vehicle
FALCON 9
Launch site
Air Force Western Test Range (AFWTR)
Object type
Payload
Rocket body
Debris
Shape & HBR
Box + 2 Pan, 1.0 m
Radar Cross Section
0.072 m², Medium (>0.1 m² and < 1m²)

Expand to show TLE details & history
Last TLE update: 15 hours ago

TLE from 15 hours ago
0 FLOCK 4G 12
1 62625U 25009S   26175.18747426  .00009679  00000-0  34286-3 0  9994
2 62625  97.4024 256.9950 0002553 284.5606  75.5351 15.29322263 79974
Epoch: 2026-06-24T04:29Z
TLE epoch observation values (Epoch: 2026-06-24T04:29:57.776Z)
Latitude
0.00001°
Longitude
-82.84402°
Altitude
480.503 km
Speed
7.626 km/s
True Right ascension
17h 07m 58s
True Declination
0° 00' 00"
Sunlit
Object was in full shadow at epoch
Visualization orbit readout
Latitude
Unknown
Longitude
Unknown
Altitude
Unknown
Speed
Unknown
Apparent Right ascension
Unknown
Apparent Declination
Unknown
Sunlit
N/A
Visualization observer readout
Local Sidereal Time
06:51:24
Azimuth
Unknown
Elevation
Unknown
Doppler factor
Unknown
Orbital elements
Apogee altitude
476.54 km
Perigee altitude
473.041 km
Semi-major axis
6,852.927 km
Eccentricity
0.00026
Inclination
97.4024°
RAAN
256.995°
Arg. of periapsis
284.5606°
True anomaly
75.56343°
Mean anomaly
75.5351°
Eccentric anomaly
75.54926°
Mean motion
3.82586 °/min
Orbital period
94.1 mins
BSTAR
0.00034286
Loading maneuver chart data...
Computing Atmospheric mass density...
Loading historical data...
Loading historical data...
Loading historical data...
Loading historical data...
Loading historical data...
Loading historical data...
Loading historical data...

Documentation

Showing up to 5 results
|